Temp
5 6 6 6 6 6 6 6 6 6 6 6 6 6 5 5 5 5 5 5 5 5 5 5 5 5 5 5 5 5 5 5 5 4 4 4 4 4 4 4 3 3
6 6 6 6 6 6 6 6 6 6 6 6 5 5 5 5 5 5 5 5 5 5 5 5 5 5 5 5 5 5 5 4 4 4 4 4 4 3 3 3 3 3
6 6 6 6 6 6 6 6 5 5 5 5 5 5 5 5 5 5 4 5 5 5 5 5 5 5 5 5 5 4 4 4 4 4 3 3 3 3 3 3 3 2
6 6 6 6 6 6 5 5 5 5 5 5 4 4 4 4 4 4 4 4 4 5 5 5 5 5 4 4 4 4 4 3 3 3 3 3 3 3 2 2 2 2
6 6 6 6 5 5 5 5 5 4 4 4 4 4 4 4 4 4 4 4 4 4 4 4 4 4 4 4 4 3 3 3 3 3 3 3 2 2 2 2 2 2
7 7 6 6 5 5 5 4 4 4 4 3 3 3 3 4 4 4 4 4 4 4 4 4 4 4 4 3 3 3 3 3 3 2 2 2 2 2 2 2 2 1
7 7 6 6 5 5 4 4 3 3 3 3 3 3 3 3 4 4 4 4 4 4 4 4 3 3 3 3 3 2 2 2 2 2 2 2 2 2 1 1 1 1
6 6 6 5 5 4 3 3 3 3 3 3 3 3 3 3 3 4 4 4 4 3 3 3 3 3 2 2 2 2 2 2 2 2 1 1 1 1 1 1 1 1
6 5 5 4 4 3 3 3 3 3 3 3 3 3 3 3 3 3 3 3 3 3 3 3 2 2 2 2 2 2 2 2 1 1 1 1 1 1 1 1 1 1
5 5 4 4 3 3 3 3 3 3 3 3 3 3 3 3 3 3 3 3 3 2 2 2 2 2 2 2 1 1 1 1 1 1 1 1 1 1 1 1 1 0
4 4 4 3 3 3 3 3 3 3 3 3 3 3 3 3 3 3 3 2 2 2 2 2 1 1 1 1 1 1 1 1 1 1 1 1 0 0 0 0 0 -0
4 4 3 3 3 2 2 2 2 2 2 3 3 3 3 3 2 2 2 2 2 1 1 1 1 1 1 1 1 1 1 0 0 0 0 0 0 0 -0 -0 -0 -0
3 3 3 3 2 2 2 2 2 2 2 2 2 2 2 2 2 2 2 1 1 1 1 1 1 1 1 1 1 0 0 0 0 0 0 0 -0 -0 -1 -1 -1 -1
3 3 3 2 2 2 2 2 2 2 2 2 2 2 2 2 2 1 1 1 1 1 1 1 1 1 0 0 0 0 0 -0 -0 -0 -0 -0 -0 -1 -1 -1 -1 -1
3 2 2 2 2 2 2 2 2 2 2 2 2 2 1 1 1 1 1 1 1 1 1 0 0 0 0 0 -0 -0 -0 -0 -0 -0 -0 -0 -1 -1 -1 -1 -2 -2
2 2 2 2 2 2 2 2 2 2 2 1 1 1 1 1 1 1 1 1 0 0 0 0 0 -0 -0 -0 -0 -0 -0 -0 -0 -0 -1 -1 -1 -1 -1 -2 -2 -2
2 2 2 2 2 2 2 1 1 1 1 1 1 1 0 1 0 0 0 0 0 0 -0 -0 -0 -0 -0 -0 -0 -0 -1 -1 -1 -1 -1 -1 -1 -2 -2 -2 -2 -2
2 2 2 2 2 1 1 1 1 1 1 1 0 0 0 0 0 0 0 0 0 -0 -0 -0 -0 -1 -1 -1 -1 -1 -1 -1 -1 -1 -1 -2 -2 -2 -2 -2 -2 -2
1 1 1 1 1 1 1 1 1 0 0 0 -0 -0 -0 0 -0 -0 -0 -0 -0 -0 -1 -1 -1 -1 -1 -1 -1 -1 -1 -1 -1 -2 -2 -2 -2 -2 -2 -3 -3 -2
1 1 1 1 1 1 1 0 -0 -0 -0 -0 -0 -0 -0 -0 -0 -0 -0 -1 -1 -1 -1 -1 -1 -1 -1 -1 -1 -1 -2 -2 -2 -2 -2 -2 -2 -3 -3 -3 -3 -3
1 1 1 1 0 0 -0 -0 -0 -0 -0 -0 -0 -0 -0 -0 -0 -1 -1 -1 -1 -1 -1 -1 -1 -1 -1 -1 -2 -2 -2 -2 -2 -2 -2 -3 -3 -3 -3 -3 -3 -3
1 1 1 0 -0 -0 -0 -0 -0 -0 -0 -0 -0 -0 -0 -0 -1 -1 -1 -1 -1 -1 -1 -1 -1 -1 -2 -2 -2 -2 -2 -2 -2 -2 -3 -3 -3 -3 -3 -3 -3 -3
1 1 0 0 -0 -0 -0 -0 -0 -0 -0 -0 -0 -0 -1 -1 -1 -1 -1 -1 -1 -1 -1 -1 -2 -2 -2 -2 -2 -2 -2 -3 -3 -3 -3 -3 -3 -3 -3 -3 -4 -4
1 1 0 0 0 -0 -0 -0 -1 -0 -0 -0 -1 -1 -1 -1 -1 -1 -1 -1 -1 -1 -2 -2 -2 -2 -2 -2 -2 -3 -3 -3 -3 -3 -3 -3 -3 -3 -4 -4 -4 -4
1 1 0 0 -0 -0 -1 -1 -1 -1 -1 -1 -1 -1 -1 -1 -1 -1 -1 -2 -2 -2 -2 -2 -2 -2 -2 -3 -3 -3 -3 -3 -3 -3 -3 -3 -4 -4 -4 -4 -4 -4
1 0 0 -0 -0 -1 -1 -1 -1 -1 -1 -1 -1 -1 -1 -1 -2 -2 -2 -2 -2 -2 -2 -2 -2 -3 -3 -3 -3 -3 -3 -3 -3 -3 -4 -4 -4 -4 -4 -4 -4 -4
Height
3157 3156 3157 3157 3158 3158 3158 3158 3158 3157 3157 3157 3157 3156 3155 3155 3154 3152 3152 3151 3150 3149 3148 3148 3147 3146 3145 3144 3143 3141 3140 3139 3137 3136 3134 3133 3131 3130 3128 3127 3125 3124
3154 3155 3155 3155 3156 3156 3156 3155 3155 3155 3155 3154 3154 3154 3153 3152 3151 3150 3149 3149 3148 3147 3146 3146 3145 3144 3143 3142 3141 3140 3138 3137 3136 3134 3133 3131 3130 3128 3126 3125 3123 3121
3152 3152 3152 3153 3153 3153 3153 3153 3152 3152 3152 3152 3151 3151 3151 3150 3149 3148 3147 3147 3146 3145 3144 3143 3143 3142 3141 3140 3139 3138 3136 3135 3134 3132 3131 3129 3128 3126 3124 3123 3121 3119
3149 3149 3149 3150 3150 3150 3150 3150 3150 3149 3149 3149 3149 3149 3148 3147 3147 3146 3145 3145 3144 3143 3142 3141 3141 3140 3139 3138 3137 3136 3135 3133 3132 3130 3129 3128 3126 3124 3123 3121 3119 3118
3146 3146 3146 3147 3147 3147 3147 3147 3147 3147 3147 3147 3147 3146 3146 3145 3145 3144 3143 3143 3142 3141 3140 3140 3139 3138 3137 3136 3135 3134 3133 3132 3130 3129 3127 3126 3124 3123 3121 3120 3118 3116
3144 3144 3144 3144 3144 3144 3145 3145 3145 3145 3145 3145 3145 3144 3144 3143 3143 3142 3142 3141 3140 3139 3138 3138 3137 3136 3135 3135 3134 3133 3131 3130 3129 3127 3126 3124 3123 3121 3120 3118 3116 3114
3142 3142 3142 3142 3142 3142 3142 3142 3142 3143 3143 3143 3142 3142 3142 3141 3141 3140 3140 3139 3138 3137 3137 3136 3135 3135 3134 3133 3132 3131 3130 3129 3128 3126 3124 3123 3121 3119 3118 3116 3114 3112
3140 3140 3140 3140 3140 3140 3140 3140 3141 3141 3141 3141 3140 3140 3140 3140 3139 3139 3138 3137 3137 3136 3135 3134 3134 3134 3133 3132 3131 3130 3129 3128 3126 3125 3123 3121 3120 3118 3116 3114 3113 3111
3138 3138 3138 3138 3138 3138 3139 3139 3139 3139 3139 3139 3139 3139 3138 3138 3138 3137 3137 3136 3135 3135 3134 3133 3133 3133 3132 3131 3130 3129 3128 3126 3125 3123 3121 3120 3118 3116 3115 3112 3110 3108
3136 3136 3136 3136 3137 3137 3137 3138 3138 3138 3138 3138 3137 3137 3137 3137 3136 3136 3135 3135 3134 3134 3133 3133 3132 3132 3131 3130 3129 3128 3126 3125 3123 3121 3120 3118 3116 3115 3113 3110 3108 3106
3134 3134 3135 3135 3135 3136 3136 3136 3136 3136 3136 3136 3136 3136 3135 3135 3135 3134 3134 3134 3133 3133 3132 3132 3131 3131 3130 3129 3128 3127 3125 3123 3121 3120 3118 3117 3115 3113 3111 3108 3106 3104
3133 3133 3133 3134 3134 3135 3135 3135 3135 3135 3135 3135 3134 3134 3134 3134 3134 3133 3133 3133 3132 3132 3132 3131 3131 3130 3129 3128 3127 3125 3124 3122 3120 3119 3117 3115 3113 3111 3109 3106 3104 3101
3132 3132 3132 3133 3133 3133 3133 3133 3133 3133 3133 3133 3133 3133 3133 3133 3133 3132 3132 3132 3131 3131 3131 3130 3130 3129 3128 3127 3126 3124 3122 3121 3119 3118 3116 3114 3112 3110 3107 3104 3102 3099
3130 3131 3131 3131 3132 3132 3132 3132 3132 3132 3132 3132 3132 3132 3132 3132 3132 3131 3131 3131 3131 3130 3130 3130 3129 3128 3127 3126 3124 3123 3122 3120 3118 3116 3114 3113 3110 3108 3106 3103 3100 3098
3129 3129 3130 3130 3130 3131 3131 3131 3131 3131 3131 3131 3131 3131 3131 3131 3131 3131 3131 3130 3130 3130 3130 3129 3128 3127 3126 3125 3123 3122 3120 3118 3117 3115 3113 3111 3109 3107 3104 3102 3099 3096
3127 3128 3128 3129 3129 3129 3130 3130 3130 3130 3130 3130 3130 3131 3130 3130 3130 3130 3130 3130 3130 3129 3129 3128 3127 3126 3125 3124 3122 3120 3119 3117 3115 3113 3112 3109 3107 3105 3102 3100 3097 3094
3126 3126 3127 3127 3128 3128 3128 3128 3129 3129 3129 3129 3130 3130 3130 3130 3130 3129 3129 3129 3129 3129 3128 3127 3126 3125 3123 3122 3120 3119 3117 3115 3114 3112 3110 3108 3105 3103 3101 3098 3096 3093
3124 3125 3126 3126 3127 3127 3127 3127 3127 3128 3128 3128 3129 3129 3129 3129 3129 3129 3129 3129 3128 3127 3127 3126 3124 3123 3122 3120 3119 3117 3116 3114 3113 3110 3108 3106 3104 3102 3099 3097 3094 3091
3123 3124 3124 3125 3125 3125 3126 3126 3126 3127 3127 3128 3128 3128 3129 3129 3129 3129 3128 3128 3127 3126 3125 3124 3123 3121 3120 3119 3118 3116 3115 3113 3111 3109 3107 3105 3102 3100 3098 3095 3092 3090
3122 3122 3123 3123 3123 3124 3124 3125 3125 3126 3126 3127 3127 3128 3128 3128 3128 3128 3127 3126 3125 3125 3123 3122 3121 3120 3119 3118 3117 3115 3114 3112 3110 3108 3105 3103 3101 3098 3096 3094 3091 3088
3120 3121 3121 3121 3122 3122 3123 3124 3124 3125 3126 3126 3127 3128 3128 3127 3127 3126 3126 3125 3124 3124 3122 3121 3120 3119 3118 3117 3116 3114 3112 3111 3109 3107 3104 3102 3099 3097 3095 3092 3089 3086
3118 3119 3119 3120 3120 3121 3122 3123 3124 3125 3125 3126 3127 3127 3127 3126 3126 3125 3125 3124 3124 3123 3122 3121 3120 3119 3117 3116 3115 3113 3111 3109 3107 3105 3103 3101 3098 3096 3093 3091 3088 3085
3116 3117 3118 3118 3119 3120 3121 3122 3123 3124 3125 3125 3126 3126 3126 3125 3125 3124 3124 3124 3123 3122 3121 3120 3119 3118 3117 3115 3114 3112 3110 3108 3106 3104 3102 3100 3097 3095 3092 3089 3087 3084
3115 3115 3116 3117 3118 3119 3121 3122 3123 3123 3124 3125 3125 3125 3124 3124 3124 3123 3123 3123 3122 3121 3120 3120 3119 3117 3116 3115 3113 3111 3110 3108 3105 3103 3101 3099 3097 3094 3091 3088 3086 3083
3113 3114 3115 3116 3117 3119 3120 3121 3122 3123 3123 3124 3124 3124 3123 3123 3123 3122 3122 3122 3122 3121 3120 3119 3118 3117 3115 3114 3112 3111 3109 3107 3105 3103 3101 3098 3096 3094 3091 3088 3085 3082
3112 3113 3114 3115 3117 3118 3119 3120 3121 3122 3122 3122 3123 3122 3122 3122 3122 3122 3122 3121 3121 3121 3120 3118 3117 3116 3115 3113 3111 3110 3108 3106 3105 3102 3100 3098 3096 3093 3090 3088 3085 3081
Wind_Speed
20 20 21 21 21 21 21 20 19 18 18 18 19 18 18 17 16 15 15 15 15 16 17 17 18 19 20 22 24 26 26 26 25 25 24 23 23 22 23 23 24 24
21 21 22 22 23 22 21 21 20 19 19 19 19 19 18 17 16 16 15 15 16 16 17 18 18 20 22 23 25 24 24 24 23 23 23 23 23 24 24 25 25 26
21 22 22 22 23 23 22 21 20 20 20 19 19 18 17 16 16 16 15 16 16 16 17 18 19 21 22 23 23 23 22 22 22 22 23 23 24 24 25 26 26 26
20 22 23 23 23 22 22 21 21 20 20 19 18 17 16 16 15 15 15 16 16 16 17 18 19 20 21 21 21 20 20 21 21 22 23 23 24 25 25 26 26 26
17 18 20 21 22 22 21 21 20 19 19 17 16 16 15 15 15 15 15 15 15 16 16 17 18 19 19 19 19 19 19 20 21 22 23 24 25 25 26 26 26 26
13 14 15 17 19 20 20 19 18 17 16 15 15 15 14 14 14 14 14 14 14 15 16 16 17 17 17 17 18 18 19 21 22 23 24 24 25 25 26 26 26 26
13 13 14 15 16 17 17 17 16 15 14 14 14 14 14 14 14 13 13 13 13 14 14 15 15 15 16 17 17 19 20 21 22 23 24 25 25 25 25 26 26 26
14 13 13 13 14 15 14 14 14 13 13 13 13 13 13 13 13 12 12 12 12 12 13 13 14 14 15 16 18 19 20 21 22 23 24 24 25 25 25 25 26 26
13 13 12 12 12 12 12 12 12 12 13 13 13 13 12 12 12 11 11 10 10 11 11 12 13 14 15 17 18 20 21 22 22 23 24 24 24 25 25 26 27 27
13 13 11 11 11 11 11 11 12 12 12 13 12 12 11 11 10 9 9 9 9 10 11 12 13 14 16 18 19 20 21 22 23 23 23 24 24 25 25 26 27 28
13 12 11 11 11 11 11 11 12 12 12 12 12 11 10 9 8 8 8 8 9 10 11 12 13 15 17 18 19 21 22 22 23 23 23 23 24 25 26 27 28 28
13 12 11 11 11 11 11 11 11 12 11 11 10 9 9 8 7 7 7 8 9 10 11 13 14 16 17 19 20 21 22 22 22 22 22 23 24 25 26 27 28 29
13 12 11 11 10 11 11 11 12 11 11 10 9 8 7 6 6 6 7 8 9 10 12 13 15 17 18 19 20 21 21 21 21 21 22 23 24 25 26 28 29 29
13 12 11 10 10 10 11 11 11 11 10 9 8 6 5 5 5 5 6 8 9 11 13 14 16 18 19 20 20 20 20 20 20 21 22 23 24 25 26 27 28 29
12 11 10 10 10 10 10 10 10 9 9 7 6 5 4 4 5 5 6 8 9 11 13 15 17 18 19 20 20 20 20 20 20 21 22 23 24 25 25 26 28 29
12 11 10 10 9 9 9 9 8 7 7 6 6 5 5 4 5 6 7 9 10 12 14 15 17 17 18 19 19 19 20 20 21 22 23 24 24 25 26 27 28 29
12 11 10 10 9 9 8 8 7 7 6 6 6 5 5 5 5 6 8 9 11 13 14 16 17 18 18 18 19 19 20 20 21 22 23 24 24 25 26 27 28 29
12 11 10 10 10 9 8 7 7 6 6 7 7 6 6 5 5 6 8 10 12 14 15 16 17 18 18 19 19 19 20 20 21 22 23 23 24 25 25 27 28 29
12 11 11 11 10 9 8 7 7 7 8 8 7 6 5 4 5 7 9 11 13 15 16 16 17 18 18 18 18 18 19 19 20 22 23 23 24 25 26 27 28 28
12 12 11 11 9 8 8 8 8 8 8 7 5 5 5 5 7 8 10 12 13 15 16 16 17 17 17 17 18 18 18 20 20 21 22 23 24 26 26 27 28 29
13 12 12 10 9 9 9 9 8 7 7 6 5 5 5 6 7 9 10 12 13 14 15 16 16 17 17 17 17 18 19 19 20 21 22 23 24 25 26 27 28 30
13 13 12 11 10 10 10 9 9 8 7 6 5 5 5 6 8 9 10 11 12 13 14 15 15 16 16 16 17 17 18 19 20 21 22 23 24 25 26 27 28 30
14 13 12 11 11 10 10 10 10 8 7 6 5 5 6 7 8 9 10 11 12 13 13 14 14 14 15 15 16 17 17 18 19 21 22 23 24 25 26 27 28 29
14 13 12 11 11 12 12 11 10 8 7 5 5 5 6 7 8 8 9 10 11 12 12 12 13 13 14 14 15 16 17 18 19 21 22 23 24 24 25 27 28 29
14 13 12 12 13 13 13 11 10 8 6 5 5 5 6 7 7 8 8 10 10 10 11 11 11 12 13 14 15 16 17 18 19 20 21 22 23 24 25 26 27 29
14 14 14 14 14 14 14 11 9 7 6 5 5 6 6 6 6 7 8 9 9 9 9 10 10 11 12 13 15 16 17 18 19 20 21 22 23 24 24 26 27 28
Wind_Direction
254 258 260 263 265 268 271 273 274 276 280 280 281 282 284 287 291 294 298 301 303 305 307 309 311 312 314 316 319 320 322 323 324 324 324 324 325 326 327 327 326 326
258 260 262 264 266 268 271 273 275 277 279 280 280 281 283 287 291 295 299 301 303 305 307 310 312 315 318 319 320 322 322 323 323 324 325 326 327 328 329 329 329 329
261 263 265 266 267 269 271 272 275 276 277 278 278 280 283 287 292 295 299 300 302 305 308 312 315 317 320 320 321 322 322 323 324 325 327 329 330 331 331 331 331 331
265 265 265 265 266 268 269 270 272 272 274 276 278 281 284 288 292 295 298 300 303 307 311 315 318 320 321 322 322 323 324 326 327 329 330 331 332 332 332 332 332 331
273 270 267 265 265 266 267 268 269 270 273 276 279 283 286 289 293 295 298 301 305 310 314 317 320 322 323 323 324 326 327 329 330 330 331 332 332 331 331 331 331 331
285 282 276 270 266 266 266 267 269 271 275 278 282 285 288 291 293 296 299 304 309 314 317 320 322 324 324 325 327 328 330 331 331 332 332 332 332 331 331 330 330 330
291 290 284 278 271 268 267 268 271 274 277 281 284 287 289 291 294 297 302 307 312 316 320 322 324 326 326 328 329 331 332 332 332 332 333 332 331 331 330 330 330 330
292 291 287 282 276 272 271 272 275 278 281 284 285 287 289 291 294 299 304 310 315 318 322 325 327 328 329 330 332 332 333 332 332 333 332 331 330 329 329 329 329 330
294 293 290 285 280 277 276 277 280 282 283 284 285 286 288 291 295 300 307 312 317 321 325 328 330 331 332 332 333 333 333 332 332 332 330 329 328 328 328 328 329 331
295 293 290 285 282 279 278 280 281 282 283 283 284 285 287 291 296 303 309 313 320 325 329 332 333 333 333 333 333 332 332 332 331 330 329 328 328 328 329 330 331 332
289 288 285 282 280 279 278 279 280 280 281 282 283 285 287 292 299 304 311 318 324 330 332 334 334 333 333 332 332 332 331 331 330 329 328 328 329 330 331 332 333 333
282 280 279 277 277 277 276 277 278 279 280 280 281 284 288 293 300 306 317 324 327 331 333 334 332 331 331 331 331 332 331 330 329 327 328 329 331 333 333 334 334 335
275 273 274 274 273 273 273 274 276 276 276 276 277 280 284 290 299 309 319 323 327 330 331 330 330 329 330 331 331 331 330 328 328 328 329 331 333 336 336 336 336 336
269 270 270 269 268 269 270 272 273 272 272 271 270 270 272 281 297 310 318 323 327 329 328 328 328 330 331 331 330 329 328 328 328 330 331 334 336 338 338 336 336 336
266 267 265 264 265 267 268 270 270 268 265 260 255 255 264 281 298 310 317 322 324 325 326 326 328 330 329 329 328 328 329 329 331 332 334 336 337 338 337 338 338 337
262 262 260 261 261 263 265 262 258 253 248 248 251 257 270 282 297 308 314 319 321 322 324 326 327 328 327 328 329 329 331 332 333 335 336 337 338 338 339 340 339 338
257 257 257 259 260 259 256 248 241 240 241 246 252 259 273 281 292 306 312 316 320 322 324 326 327 328 329 331 332 333 334 335 336 337 338 338 339 340 341 341 341 341
254 255 256 258 257 253 246 238 237 240 244 249 255 262 272 279 292 308 314 317 321 324 326 328 330 332 334 335 336 337 337 337 338 338 339 340 341 342 343 343 342 343
250 253 254 256 253 247 241 237 239 245 250 255 258 262 270 284 302 313 318 321 325 327 329 331 334 336 337 337 337 338 338 338 339 340 340 341 343 343 344 344 343 343
247 250 251 252 250 246 243 243 246 246 244 243 243 252 272 294 309 318 322 326 328 329 332 335 337 338 338 338 338 338 339 340 341 342 342 344 345 345 345 345 344 345
245 248 250 251 250 249 247 243 235 223 215 218 234 256 281 299 312 320 325 328 330 332 335 336 337 338 338 338 340 341 342 343 343 344 346 347 347 345 345 347 348 348
242 245 249 251 249 245 238 223 208 201 206 221 240 263 286 303 316 324 328 330 332 334 337 337 338 338 339 341 343 344 345 346 346 348 350 350 348 346 347 349 351 350
241 245 248 246 237 226 214 201 198 204 213 226 246 269 292 309 320 326 328 331 335 337 338 338 339 339 342 344 345 347 349 349 350 353 353 351 350 349 349 350 351 352
239 242 239 230 217 208 201 197 201 209 216 231 255 279 301 316 321 326 330 335 338 340 340 340 341 342 345 348 349 352 353 354 355 356 355 353 352 351 350 350 351 353
235 235 226 215 206 200 198 200 204 209 219 239 265 290 306 315 322 329 335 338 340 342 343 344 345 349 351 352 354 357 358 359 0 359 357 355 353 352 353 353 353 354
230 227 217 207 201 198 199 202 204 208 224 247 273 295 305 316 327 332 336 339 341 346 348 349 352 355 357 359 -0 1 3 5 5 2 360 358 356 355 356 355 355 357